Location: ???? ????
(41.4149°N, 22.8816°E)
Time: 12:11:15
(UTC+00:00)

SL-08 R/B - Pass Details

Date: 14 July 2020
Orbit: 674 x 739 km, 98.4° (Epoch: 09 August)

Event Time Altitude Azimuth Distance (km) Brightness Sun altitude
Exits shadow 01:22:18 12° 169° (S) 2,005 5.3 -15.9°
Maximum altitude 01:26:39 81° 257° (WSW) 722 3.2 -15.4°
Drops below altitude 10° 01:31:31 10° 345° (NNW) 2,210 6.3 -14.8°
Sets 01:33:49 0° 346° (NNW) 3,144 7.2 -14.5°
